Weather History for Mineral Point, WI

Change the Weather History Date:

Monday, October 8, 2012

  Actual Average (KLNR) Record (KLNR)
Temperature  
Mean Temperature 47 °F -  
Max Temperature 62 °F 62 °F 82 °F (2011)
Min Temperature 32 °F 39 °F 27 °F (2012)
Degree Days  
Heating Degree Days 18    
Moisture  
Dew Point 26 °F    
Average Humidity 45    
Maximum Humidity 70    
Minimum Humidity 27    
Precipitation  
Precipitation 0.00 in - - ()
Sea Level Pressure  
Sea Level Pressure 29.95 in    
Wind  
Wind Speed 11 mph (South)    
Max Wind Speed 26 mph    
Max Gust Speed 34 mph    
Visibility 10 miles    
Events      
Averages and records for this station are not official NWS values.
T = Trace of Precipitation, MM = Missing Value Source: NWS Daily Summary

Daily Weather History Graph

Daily Weather History Graph

Search for Another Location

Airport:

Trip Planner

Search our weather history database for the weather conditions in past years. The results will help you decide how hot, cold, wet, or windy it might be!

Date:

Astronomy

Oct. 08, 2012 Rise Set
Actual Time 7:06 AM CDT 6:29 PM CDT
Civil Twilight 6:38 AM CDT 6:57 PM CDT
Nautical Twilight 6:05 AM CDT 7:30 PM CDT
Astronomical Twilight 5:32 AM CDT 8:03 PM CDT
Moon No Moon Rise 2:27 PM CDT (10/8)
Length of Visible Light 12h 19m
Length of Day
11h 22m
Last Quarter, 46% of the Moon is Illuminated
Oct 8
Last Quarter
Oct 15
New
Oct 21
First Quarter
Oct 29
Full
Nov 6
Last Quarter

Hourly Weather History & Observations

Time (CDT) Temp. Windchill Dew Point Humidity Pressure Visibility Wind Dir Wind Speed Gust Speed Precip Events Conditions
12:15 AM 35.6 °F 30.7 °F 17.6 °F 48% 30.07 in 10.0 mi South 5.8 mph - N/A   Clear
12:35 AM 35.6 °F 29.9 °F 17.6 °F 48% 30.06 in 10.0 mi South 6.9 mph - N/A   Clear
12:55 AM 35.6 °F 29.9 °F 17.6 °F 48% 30.06 in 10.0 mi South 6.9 mph - N/A   Clear
1:15 AM 35.6 °F 29.9 °F 19.4 °F 52% 30.06 in 10.0 mi South 6.9 mph - N/A   Clear
1:35 AM 33.8 °F 27.7 °F 19.4 °F 56% 30.06 in 10.0 mi South 6.9 mph - N/A   Clear
1:55 AM 33.8 °F 27.0 °F 19.4 °F 56% 30.06 in 10.0 mi South 8.1 mph - N/A   Clear
2:15 AM 33.8 °F 27.7 °F 19.4 °F 56% 30.06 in 10.0 mi South 6.9 mph - N/A   Clear
2:35 AM 33.8 °F 27.0 °F 19.4 °F 56% 30.04 in 10.0 mi South 8.1 mph - N/A   Clear
2:55 AM 33.8 °F 27.7 °F 19.4 °F 56% 30.03 in 10.0 mi South 6.9 mph - N/A   Clear
3:15 AM 33.8 °F 27.7 °F 19.4 °F 56% 30.03 in 10.0 mi South 6.9 mph - N/A   Clear
3:35 AM 32.0 °F 25.6 °F 19.4 °F 60% 30.02 in 10.0 mi SSE 6.9 mph - N/A   Clear
3:55 AM 33.8 °F 27.7 °F 21.2 °F 60% 30.02 in 10.0 mi South 6.9 mph - N/A   Clear
4:15 AM 33.8 °F 28.6 °F 21.2 °F 60% 30.02 in 10.0 mi South 5.8 mph - N/A   Clear
4:35 AM 33.8 °F 27.0 °F 21.2 °F 60% 30.02 in 10.0 mi South 8.1 mph - N/A   Clear
4:55 AM 33.8 °F 27.0 °F 23.0 °F 65% 30.02 in 10.0 mi South 8.1 mph - N/A   Clear
5:15 AM 32.0 °F 26.4 °F 23.0 °F 69% 30.02 in 10.0 mi SSE 5.8 mph - N/A   Clear
5:35 AM 32.0 °F 25.6 °F 23.0 °F 69% 30.02 in 10.0 mi South 6.9 mph - N/A   Clear
5:55 AM 33.8 °F 27.7 °F 23.0 °F 65% 30.02 in 10.0 mi South 6.9 mph - N/A   Clear
6:15 AM 33.8 °F 27.7 °F 23.0 °F 65% 30.02 in 10.0 mi South 6.9 mph - N/A   Clear
6:35 AM 35.6 °F 29.2 °F 23.0 °F 60% 30.01 in 10.0 mi South 8.1 mph - N/A   Clear
6:55 AM 35.6 °F 28.6 °F 24.8 °F 65% 30.01 in 10.0 mi South 9.2 mph - N/A   Clear
7:15 AM 33.8 °F 27.7 °F 24.8 °F 70% 30.01 in 10.0 mi South 6.9 mph - N/A   Clear
7:35 AM 33.8 °F 27.0 °F 24.8 °F 70% 30.01 in 10.0 mi SSE 8.1 mph - N/A   Clear
7:55 AM 35.6 °F 29.2 °F 26.6 °F 70% 30.01 in 10.0 mi SSE 8.1 mph - N/A   Clear
8:15 AM 37.4 °F 30.8 °F 26.6 °F 65% 30.01 in 10.0 mi South 9.2 mph - N/A   Clear
8:35 AM 39.2 °F 32.0 °F 26.6 °F 61% 30.01 in 10.0 mi South 11.5 mph - N/A   Clear
8:55 AM 42.8 °F 36.6 °F 28.4 °F 57% 30.01 in 10.0 mi South 11.5 mph - N/A   Clear
9:15 AM 44.6 °F 38.4 °F 28.4 °F 53% 30.00 in 10.0 mi SSW 12.7 mph - N/A   Clear
9:35 AM 46.4 °F 39.2 °F 28.4 °F 50% 30.00 in 10.0 mi South 18.4 mph 24.2 mph N/A   Clear
9:55 AM 50.0 °F - 28.4 °F 43% 30.00 in 10.0 mi SSW 17.3 mph 21.9 mph N/A   Clear
10:15 AM 50.0 °F - 28.4 °F 43% 29.99 in 10.0 mi South 16.1 mph 25.3 mph N/A   Clear
10:35 AM 51.8 °F - 30.2 °F 44% 29.99 in 10.0 mi South 19.6 mph 27.6 mph N/A   Clear
10:55 AM 53.6 °F - 30.2 °F 41% 29.97 in 10.0 mi SSW 18.4 mph 26.5 mph N/A   Mostly Cloudy
11:15 AM 55.4 °F - 30.2 °F 38% 29.97 in 10.0 mi SSW 21.9 mph 31.1 mph N/A   Overcast
11:35 AM 57.2 °F - 30.2 °F 36% 29.97 in 10.0 mi SSW 23.0 mph 32.2 mph N/A   Mostly Cloudy
11:55 AM 59.0 °F - 30.2 °F 34% 29.96 in 10.0 mi SSW 25.3 mph 33.4 mph N/A   Scattered Clouds
12:15 PM 57.2 °F - 28.4 °F 33% 29.96 in 10.0 mi SW 23.0 mph 32.2 mph N/A   Mostly Cloudy
12:35 PM 59.0 °F - 28.4 °F 31% 29.94 in 10.0 mi SSW 21.9 mph 26.5 mph N/A   Scattered Clouds
12:55 PM 59.0 °F - 28.4 °F 31% 29.94 in 10.0 mi SSW 19.6 mph 32.2 mph N/A   Clear
1:15 PM 60.8 °F - 28.4 °F 29% 29.93 in 10.0 mi SSW 23.0 mph 29.9 mph N/A   Scattered Clouds
1:35 PM 59.0 °F - 28.4 °F 31% 29.92 in 10.0 mi SSW 19.6 mph 32.2 mph N/A   Scattered Clouds
1:55 PM 59.0 °F - 28.4 °F 31% 29.91 in 10.0 mi SW 21.9 mph 31.1 mph N/A   Scattered Clouds
2:15 PM 60.8 °F - 28.4 °F 29% 29.90 in 10.0 mi SSW 23.0 mph 31.1 mph N/A   Scattered Clouds
2:35 PM 62.6 °F - 28.4 °F 27% 29.89 in 10.0 mi SW 26.5 mph 34.5 mph N/A   Scattered Clouds
3:15 PM 62.6 °F - 28.4 °F 27% 29.88 in 10.0 mi SSW 24.2 mph 32.2 mph N/A   Mostly Cloudy
3:35 PM 60.8 °F - 28.4 °F 29% 29.88 in 10.0 mi SSW 19.6 mph 29.9 mph N/A   Mostly Cloudy
3:55 PM 59.0 °F - 28.4 °F 31% 29.87 in 10.0 mi SSW 21.9 mph 31.1 mph N/A   Scattered Clouds
4:15 PM 62.6 °F - 28.4 °F 27% 29.87 in 10.0 mi SSW 20.7 mph 33.4 mph N/A   Clear
4:35 PM 60.8 °F - 28.4 °F 29% 29.87 in 10.0 mi SSW 23.0 mph 31.1 mph N/A   Scattered Clouds
4:55 PM 60.8 °F - 28.4 °F 29% 29.86 in 10.0 mi SSW 16.1 mph 29.9 mph N/A   Scattered Clouds
5:15 PM 60.8 °F - 28.4 °F 29% 29.86 in 10.0 mi SSW 18.4 mph 27.6 mph N/A   Clear
5:35 PM 59.0 °F - 28.4 °F 31% 29.85 in 10.0 mi SSW 23.0 mph 29.9 mph N/A   Clear
5:55 PM 59.0 °F - 28.4 °F 31% 29.85 in 10.0 mi SSW 13.8 mph 28.8 mph N/A   Clear
6:15 PM 59.0 °F - 28.4 °F 31% 29.85 in 10.0 mi SSW 19.6 mph 25.3 mph N/A   Clear
6:35 PM 57.2 °F - 26.6 °F 31% 29.86 in 10.0 mi South 16.1 mph 23.0 mph N/A   Clear
6:55 PM 57.2 °F - 26.6 °F 31% 29.86 in 10.0 mi South 15.0 mph 23.0 mph N/A   Clear
7:35 PM 55.4 °F - 26.6 °F 33% 29.87 in 10.0 mi South 13.8 mph 20.7 mph N/A   Mostly Cloudy
7:55 PM 55.4 °F - 26.6 °F 33% 29.87 in 10.0 mi South 17.3 mph 23.0 mph N/A   Overcast
8:15 PM 55.4 °F - 26.6 °F 33% 29.88 in 10.0 mi South 16.1 mph 21.9 mph N/A   Mostly Cloudy
8:55 PM 53.6 °F - 26.6 °F 35% 29.88 in 10.0 mi South 15.0 mph 20.7 mph N/A   Clear
9:15 PM 53.6 °F - 26.6 °F 35% 29.88 in 10.0 mi South 13.8 mph 20.7 mph N/A   Mostly Cloudy
9:35 PM 53.6 °F - 26.6 °F 35% 29.89 in 10.0 mi South 12.7 mph 18.4 mph N/A   Overcast
9:55 PM 53.6 °F - 28.4 °F 38% 29.88 in 10.0 mi South 17.3 mph 23.0 mph N/A   Overcast
10:15 PM 53.6 °F - 28.4 °F 38% 29.88 in 10.0 mi South 12.7 mph 20.7 mph N/A   Mostly Cloudy
10:55 PM 53.6 °F - 30.2 °F 41% 29.87 in 10.0 mi South 17.3 mph 23.0 mph N/A   Clear
11:15 PM 53.6 °F - 30.2 °F 41% 29.87 in 10.0 mi South 13.8 mph 20.7 mph N/A   Clear
11:35 PM 53.6 °F - 30.2 °F 41% 29.87 in 10.0 mi SSW 15.0 mph 21.9 mph N/A   Clear
11:55 PM 53.6 °F - 30.2 °F 41% 29.86 in 10.0 mi SSW 16.1 mph 26.5 mph N/A   Clear